CYTHCYYQ

Guest
Details From CYTH - Thompson
To CYYQ - Churchill
Flight Number -
Tags Generated
Created
Modified
Stats Distance 215 nm / 399 km
Max Altitude 0 ft / 0 m
Waypoints 2
Social Downloads 1
Likes 0
Share VATSIM

Download

Looking for another format? Having issues loading an existing format? Contact us
Advertisement - Login to hide

Notes

Generated

Route

CYTH CYYQ

ID Type Via Altitude Latitude Longitude Leg Dist Tot Dist Heading (true) Name
O CYTH APT - 0 ft / 0 m 55.80611˚ -97.85944˚ - 0 nm - -
O CYYQ APT - 0 ft / 0 m 58.75167˚ -94.07111˚ 215 nm 215 nm 33° / 36° -

Altitude Profile

Advertisement - Login to hide

Weather


0- 5 10 15 20 25 30 35+ Temperature / ° C

Clouds and Precipitation
Forecast for 2018-05-20 12:00 UTC. Updated 2 hours ago

Ground ~20,000 ft ~40,000 ft Winds

CYTH

Details ICAO CYTH (YTH)
Name THOMPSON
Region Canada
Timezone America/Winnipeg (UTC-5.0)
Stats Elevation 729 ft / 222 m (AMSL)
Location 55.801728° -97.859472°
Runways 2
Magnetic Variation 2.876° E

METAR

CYTH 201200Z 04007KT 15SM FEW020 BKN100 BKN140 03/01 A3009 RMK SC1AC5AC1 SLP199

Decode

TAF

TAF CYTH 201238Z 2013/2101 04008KT P6SM BKN100 BECMG 2017/2019 10006KT RMK NXT FCST BY 201900Z

Decode

Departure Runways

ID Width Length Bearing (true) Bearing (mag) Surface Threshold Offset Overrun Length
05 150 ft / 46 m 5,786 ft / 1,764 m 60.93° 58.05° Asphalt 0 ft / 0 m 0 ft / 0 m
14 100 ft / 30 m 2,441 ft / 744 m 150.67° 147.79° Gravel 0 ft / 0 m 0 ft / 0 m
23 150 ft / 46 m 5,786 ft / 1,764 m 240.96° 238.08° Asphalt 0 ft / 0 m 0 ft / 0 m
32 100 ft / 30 m 2,441 ft / 744 m 330.68° 327.80° Gravel 0 ft / 0 m 0 ft / 0 m

CYYQ

Details ICAO CYYQ (YYQ)
Name CHURCHILL
Region Canada
Timezone America/Winnipeg (UTC-5.0)
Stats Elevation 94 ft / 29 m (AMSL)
Location 58.743971° -94.063864°
Runways 2
Magnetic Variation 2.066° W

METAR

CYYQ 201200Z 32018G25KT 15SM -SN OVC015 M07/M10 A3011 RMK SC8 SLP201

Decode

TAF

TAF CYYQ 201138Z 2012/2112 33018G28KT P6SM OVC015 TEMPO 2012/2102 P6SM -SN BECMG 2022/2024 36010KT FM210200 VRB03KT P6SM BKN015 RMK NXT FCST BY 201800Z

Decode

Destination Runways

ID Width Length Bearing (true) Bearing (mag) Surface Threshold Offset Overrun Length
07 100 ft / 30 m 3,988 ft / 1,215 m 70.97° 73.04° Gravel 0 ft / 0 m 0 ft / 0 m
15 160 ft / 49 m 9,178 ft / 2,797 m 152.64° 154.71° Asphalt 0 ft / 0 m 0 ft / 0 m
25 100 ft / 30 m 3,988 ft / 1,215 m 250.99° 253.06° Gravel 0 ft / 0 m 0 ft / 0 m
33 160 ft / 49 m 9,178 ft / 2,797 m 332.66° 334.73° Asphalt 0 ft / 0 m 0 ft / 0 m